timestamp,surface_pressure_avg,surface_temp_avg,battery_voltage,lat,long
2017-11-03 00:00:00+00:00,316.998,10.5,12.97,47.84626,-54.09684
2017-11-03 00:10:00+00:00,310.4163,10.5,12.97,47.84626,-54.09684
2017-11-03 00:20:00+00:00,307.218,10.5,12.97,47.84626,-54.09684
2017-11-03 00:30:00+00:00,297.7213,10.5,13.05,47.84626,-54.09684
2017-11-03 00:40:00+00:00,287.9197,10.44,13.05,47.84626,-54.09684
2017-11-03 00:50:00+00:00,281.2347,10.4,13.05,47.84626,-54.09684
2017-11-03 01:00:00+00:00,271.7515,10.4,12.97,47.84626,-54.09684
2017-11-03 01:10:00+00:00,259.4264,10.4,12.89,47.84626,-54.09684
2017-11-03 01:20:00+00:00,252.7581,10.4,12.97,47.84626,-54.09684
2017-11-03 01:30:00+00:00,244.6731,10.49,12.97,47.84626,-54.09684
2017-11-03 01:40:00+00:00,228.2148,10.5,12.97,47.84626,-54.09684
2017-11-03 01:50:00+00:00,217.4031,10.3,12.97,47.84626,-54.09684
2017-11-03 02:00:00+00:00,214.688,10.3,12.97,47.84626,-54.09684
2017-11-03 02:10:00+00:00,207.4564,9.9,12.89,47.84626,-54.09684
2017-11-03 02:20:00+00:00,199.1098,9.83,12.97,47.84626,-54.09684
2017-11-03 02:30:00+00:00,199.2381,10.05,12.97,47.84626,-54.09684
2017-11-03 02:40:00+00:00,196.5748,9.87,12.97,47.84626,-54.09684
2017-11-03 02:50:00+00:00,188.0281,9.6,12.97,47.84626,-54.09684
2017-11-03 03:00:00+00:00,183.8531,9.6,12.97,47.84626,-54.09684
2017-11-03 03:10:00+00:00,180.0598,9.6,12.89,47.84626,-54.09684
2017-11-03 03:20:00+00:00,173.0865,9.6,12.97,47.84626,-54.09684
2017-11-03 03:30:00+00:00,169.0065,9.6,12.97,47.84626,-54.09684
2017-11-03 03:40:00+00:00,169.1581,9.6,12.97,47.84626,-54.09684
2017-11-03 03:50:00+00:00,167.6182,9.5,12.97,47.84626,-54.09684
2017-11-03 04:00:00+00:00,165.6265,9.4,12.89,47.84626,-54.09684
2017-11-03 04:10:00+00:00,167.7065,9.49,12.81,47.84626,-54.09684
2017-11-03 04:20:00+00:00,170.1198,9.58,12.97,47.84626,-54.09684
2017-11-03 04:30:00+00:00,170.8515,9.68,12.97,47.84626,-54.09684
2017-11-03 04:40:00+00:00,171.8598,9.7,12.97,47.84626,-54.09684
2017-11-03 04:50:00+00:00,174.0548,9.73,12.97,47.84626,-54.09684
2017-11-03 05:00:00+00:00,173.0165,9.77,12.89,47.84626,-54.09684
2017-11-03 05:10:00+00:00,176.7082,9.77,12.81,47.84626,-54.09684
2017-11-03 05:20:00+00:00,186.7098,9.79,12.89,47.84626,-54.09684
2017-11-03 05:30:00+00:00,191.8598,9.8,12.89,47.84626,-54.09684
2017-11-03 05:40:00+00:00,189.8365,9.8,12.97,47.84626,-54.09684
2017-11-03 05:50:00+00:00,192.6131,9.86,12.97,47.84626,-54.09684
2017-11-03 06:00:00+00:00,202.6831,10.05,12.89,47.84626,-54.09684
2017-11-03 06:10:00+00:00,206.3114,10.09,12.81,47.84626,-54.09684
2017-11-03 06:20:00+00:00,208.6098,10.0,12.89,47.84626,-54.09684
2017-11-03 06:30:00+00:00,217.9398,10.0,12.89,47.84626,-54.09684
2017-11-03 06:40:00+00:00,223.9832,10.0,12.89,47.84626,-54.09684
2017-11-03 06:50:00+00:00,223.4365,10.0,12.89,47.84626,-54.09684
2017-11-03 07:00:00+00:00,227.3931,10.04,12.89,47.84626,-54.09684
2017-11-03 07:10:00+00:00,236.3714,10.1,12.81,47.84626,-54.09684
2017-11-03 07:20:00+00:00,239.5348,10.1,12.89,47.84626,-54.09684
2017-11-03 07:30:00+00:00,242.0197,10.11,12.89,47.84626,-54.09684
2017-11-03 07:40:00+00:00,250.2897,10.18,12.89,47.84626,-54.09684
2017-11-03 07:50:00+00:00,260.1647,10.2,12.89,47.84626,-54.09684
2017-11-03 08:00:00+00:00,263.8981,10.2,12.89,47.84626,-54.09684
2017-11-03 08:10:00+00:00,269.3597,10.2,12.81,47.84626,-54.09684
2017-11-03 08:20:00+00:00,281.3798,10.2,12.89,47.84626,-54.09684
2017-11-03 08:30:00+00:00,292.0797,10.2,12.89,47.84626,-54.09684
2017-11-03 08:40:00+00:00,296.9481,10.2,12.89,47.84626,-54.09684
2017-11-03 08:50:00+00:00,305.818,10.22,12.89,47.84626,-54.09684
2017-11-03 09:00:00+00:00,313.883,10.27,12.81,47.84626,-54.09684
2017-11-03 09:10:00+00:00,320.5413,10.29,12.81,47.84626,-54.09684
2017-11-03 09:20:00+00:00,325.7897,10.3,12.89,47.84626,-54.09684
2017-11-03 09:30:00+00:00,331.8047,10.3,12.89,47.84626,-54.09684
2017-11-03 09:40:00+00:00,337.6413,10.3,12.89,47.84626,-54.09684
2017-11-03 09:50:00+00:00,344.4713,10.3,12.89,47.84626,-54.09684
2017-11-03 10:00:00+00:00,350.0079,10.3,12.81,47.84626,-54.09684
2017-11-03 10:10:00+00:00,353.3896,10.3,12.81,47.84626,-54.09684
2017-11-03 10:20:00+00:00,359.1929,10.3,12.89,47.84626,-54.09684
2017-11-03 10:30:00+00:00,362.1013,10.3,12.89,47.84626,-54.09684
2017-11-03 10:40:00+00:00,359.0779,10.3,12.89,47.84626,-54.09684
2017-11-03 10:50:00+00:00,359.4695,10.3,12.89,47.84626,-54.09684
2017-11-03 11:00:00+00:00,365.2679,10.3,12.89,47.84626,-54.09684
2017-11-03 11:10:00+00:00,367.1595,10.3,12.81,47.84626,-54.09684
2017-11-03 11:20:00+00:00,357.7379,10.3,13.37,47.84626,-54.09684
2017-11-03 11:30:00+00:00,353.513,10.3,13.68,47.84626,-54.09684
2017-11-03 11:40:00+00:00,356.3596,10.3,13.53,47.84626,-54.09684
2017-11-03 11:50:00+00:00,357.1763,10.31,13.44,47.84626,-54.09684
2017-11-03 12:00:00+00:00,350.1447,10.4,13.29,47.84626,-54.09684
2017-11-03 12:10:00+00:00,343.8579,10.4,13.21,47.84626,-54.09684
2017-11-03 12:20:00+00:00,342.648,10.41,13.21,47.84626,-54.09684
2017-11-03 12:30:00+00:00,334.5096,10.49,13.21,47.84626,-54.09684
2017-11-03 12:40:00+00:00,318.1747,10.5,13.29,47.84626,-54.09684
2017-11-03 12:50:00+00:00,312.433,10.5,13.29,47.84626,-54.09684
2017-11-03 13:00:00+00:00,307.118,10.5,13.29,47.84626,-54.09684
2017-11-03 13:10:00+00:00,295.058,10.5,13.29,47.84626,-54.09684
2017-11-03 13:20:00+00:00,282.223,10.5,13.44,47.84626,-54.09684
2017-11-03 13:30:00+00:00,278.0864,10.5,13.68,47.84626,-54.09684
2017-11-03 13:40:00+00:00,269.0747,10.5,14.0,47.84626,-54.09684
2017-11-03 13:50:00+00:00,254.4514,10.5,13.68,47.84626,-54.09684
2017-11-03 14:00:00+00:00,246.7314,10.5,13.44,47.84626,-54.09684
2017-11-03 14:10:00+00:00,241.4664,10.5,13.53,47.84626,-54.09684
2017-11-03 14:20:00+00:00,233.7115,10.5,13.76,47.84626,-54.09684
2017-11-03 14:30:00+00:00,221.1581,10.5,13.44,47.84626,-54.09684
2017-11-03 14:40:00+00:00,213.7481,10.5,13.6,47.84626,-54.09684
2017-11-03 14:50:00+00:00,209.7964,10.5,13.44,47.84626,-54.09684
2017-11-03 15:00:00+00:00,200.6414,10.5,14.08,47.84626,-54.09684
2017-11-03 15:10:00+00:00,190.9131,10.5,13.44,47.84626,-54.09684
2017-11-03 15:20:00+00:00,186.1015,10.54,13.68,47.84626,-54.09684
2017-11-03 15:30:00+00:00,182.5965,10.57,13.76,47.84626,-54.09684
2017-11-03 15:40:00+00:00,176.3832,10.59,13.53,47.84626,-54.09684
2017-11-03 15:50:00+00:00,171.8115,10.6,13.53,47.84626,-54.09684
2017-11-03 16:00:00+00:00,170.4581,10.56,13.53,47.84626,-54.09684
2017-11-03 16:10:00+00:00,166.7265,10.55,13.44,47.84626,-54.09684
2017-11-03 16:20:00+00:00,164.2365,10.57,13.6,47.84626,-54.09684
2017-11-03 16:30:00+00:00,164.8365,10.56,13.44,47.84626,-54.09684
2017-11-03 16:40:00+00:00,160.2998,10.57,13.44,47.84626,-54.09684
2017-11-03 16:50:00+00:00,158.8165,10.6,13.53,47.84626,-54.09684
2017-11-03 17:00:00+00:00,160.3398,10.59,13.53,47.84626,-54.09684
2017-11-03 17:10:00+00:00,159.3948,10.58,13.68,47.84626,-54.09684
2017-11-03 17:20:00+00:00,161.1082,10.5,13.44,47.84626,-54.09684
2017-11-03 17:30:00+00:00,163.1632,10.5,13.68,47.84626,-54.09684
2017-11-03 17:40:00+00:00,166.8564,10.54,13.6,47.84626,-54.09684
2017-11-03 17:50:00+00:00,174.2315,10.56,13.92,47.84626,-54.09684
2017-11-03 18:00:00+00:00,179.0981,10.55,13.84,47.84626,-54.09684
2017-11-03 18:10:00+00:00,181.7598,10.5,13.68,47.84626,-54.09684
2017-11-03 18:20:00+00:00,186.5515,10.5,13.68,47.84626,-54.09684
2017-11-03 18:30:00+00:00,194.4064,10.5,13.53,47.84626,-54.09684
2017-11-03 18:40:00+00:00,197.3748,10.51,13.44,47.84626,-54.09684
2017-11-03 18:50:00+00:00,198.3748,10.55,13.44,47.84626,-54.09684
2017-11-03 19:00:00+00:00,207.9364,10.5,13.37,47.84626,-54.09684
2017-11-03 19:10:00+00:00,214.7914,10.52,13.21,47.84626,-54.09684
2017-11-03 19:20:00+00:00,216.1298,10.56,13.29,47.84626,-54.09684
2017-11-03 19:30:00+00:00,221.8897,10.56,13.21,47.84626,-54.09684
2017-11-03 19:40:00+00:00,231.0681,10.54,13.21,47.84626,-54.09684
2017-11-03 19:50:00+00:00,239.7298,10.55,13.21,47.84626,-54.09684
2017-11-03 20:00:00+00:00,245.7647,10.52,13.13,47.84626,-54.09684
2017-11-03 20:10:00+00:00,253.973,10.5,13.05,47.84626,-54.09684
2017-11-03 20:20:00+00:00,264.6464,10.49,13.13,47.84626,-54.09684
2017-11-03 20:30:00+00:00,272.1864,10.4,13.13,47.84626,-54.09684
2017-11-03 20:40:00+00:00,276.0214,10.4,13.13,47.84626,-54.09684
2017-11-03 20:50:00+00:00,284.6947,10.33,13.13,47.84626,-54.09684
2017-11-03 21:00:00+00:00,297.633,10.35,13.05,47.84626,-54.09684
2017-11-03 21:10:00+00:00,309.0513,10.37,12.97,47.84626,-54.09684
2017-11-03 21:20:00+00:00,316.6247,10.39,13.05,47.84626,-54.09684
2017-11-03 21:30:00+00:00,328.6047,10.39,13.05,47.84626,-54.09684
2017-11-03 21:40:00+00:00,338.7863,10.4,13.05,47.84626,-54.09684
2017-11-03 21:50:00+00:00,344.0397,10.4,13.05,47.84626,-54.09684
2017-11-03 22:00:00+00:00,353.133,10.4,13.05,47.84626,-54.09684
2017-11-03 22:10:00+00:00,359.2213,10.4,12.97,47.84626,-54.09684
2017-11-03 22:20:00+00:00,359.1761,10.4,13.05,47.84626,-54.09684
2017-11-03 22:30:00+00:00,362.1046,10.4,13.05,47.84626,-54.09684
2017-11-03 22:40:00+00:00,371.3779,10.38,13.05,47.84626,-54.09684
2017-11-03 22:50:00+00:00,371.7147,10.39,13.05,47.84626,-54.09684
2017-11-03 23:00:00+00:00,368.6897,10.4,13.05,47.84626,-54.09684
2017-11-03 23:10:00+00:00,370.8562,10.39,12.97,47.84626,-54.09684
2017-11-03 23:20:00+00:00,370.8829,10.39,13.05,47.84626,-54.09684
2017-11-03 23:30:00+00:00,365.8246,10.39,13.05,47.84626,-54.09684
2017-11-03 23:40:00+00:00,365.9779,10.39,13.05,47.84626,-54.09684
2017-11-03 23:50:00+00:00,361.1629,10.38,13.05,47.84626,-54.09684
